29.03.2024;12:45;13,68
29.03.2024;11:45;13,77
29.03.2024;10:45;13,80
29.03.2024;09:45;13,83
29.03.2024;08:45;13,84
29.03.2024;07:45;13,04
29.03.2024;05:45;12,94
29.03.2024;04:45;12,95
29.03.2024;03:45;12,95
29.03.2024;02:45;12,96
29.03.2024;01:45;12,97
29.03.2024;00:45;12,99
28.03.2024;23:45;13,00
28.03.2024;22:45;13,01
28.03.2024;21:45;13,04
28.03.2024;20:45;13,07
28.03.2024;19:45;13,10
28.03.2024;18:45;13,59
28.03.2024;17:45;13,56
28.03.2024;16:45;13,48
28.03.2024;15:45;13,44
28.03.2024;14:45;13,46
28.03.2024;13:45;13,45
28.03.2024;12:45;13,47
28.03.2024;11:45;13,71
28.03.2024;10:45;13,82
28.03.2024;09:45;13,88
28.03.2024;08:45;13,90
28.03.2024;07:45;13,93
28.03.2024;06:45;12,97
28.03.2024;05:45;12,94
28.03.2024;04:45;12,95
28.03.2024;03:45;12,96
28.03.2024;02:45;12,97
28.03.2024;01:45;12,99
28.03.2024;00:45;13,01
27.03.2024;23:45;13,03
27.03.2024;22:45;13,05
27.03.2024;21:45;13,08
27.03.2024;20:45;13,11
27.03.2024;19:45;13,19
27.03.2024;18:45;13,85
27.03.2024;17:45;13,80
27.03.2024;16:45;13,76
27.03.2024;15:45;13,73
27.03.2024;14:45;13,73
27.03.2024;13:45;13,79
27.03.2024;12:45;13,76
27.03.2024;11:45;13,88
27.03.2024;10:45;13,97
27.03.2024;09:45;14,04
27.03.2024;08:45;14,08
27.03.2024;07:45;13,24
27.03.2024;06:45;12,92
27.03.2024;05:45;12,91
27.03.2024;04:45;12,93
27.03.2024;03:45;12,94
27.03.2024;02:45;12,96
27.03.2024;01:45;12,99
27.03.2024;00:45;13,00
26.03.2024;23:45;13,03
26.03.2024;22:45;13,05
26.03.2024;21:45;13,09
26.03.2024;20:45;13,12
26.03.2024;19:45;13,20
26.03.2024;18:45;13,87
26.03.2024;17:45;13,80
26.03.2024;16:45;13,72
26.03.2024;15:45;13,65
26.03.2024;14:45;13,67
26.03.2024;13:45;13,71
26.03.2024;12:45;13,72
26.03.2024;11:45;13,93
26.03.2024;10:45;14,08
26.03.2024;09:45;14,21
26.03.2024;08:45;14,25
26.03.2024;07:45;13,08
26.03.2024;06:45;12,92
26.03.2024;05:45;12,92
26.03.2024;04:45;12,94
26.03.2024;03:45;12,96
26.03.2024;02:45;12,98
26.03.2024;01:45;13,00
26.03.2024;00:45;13,03
25.03.2024;23:45;13,06
25.03.2024;22:45;13,09
25.03.2024;21:45;13,12
25.03.2024;20:45;13,15
25.03.2024;19:45;13,25
25.03.2024;18:45;13,95
25.03.2024;17:45;13,90
25.03.2024;16:45;13,82
25.03.2024;15:45;13,78
25.03.2024;14:45;13,78
25.03.2024;13:45;13,82
25.03.2024;12:45;13,85
25.03.2024;11:45;13,99
25.03.2024;10:45;14,03
25.03.2024;09:45;14,07
25.03.2024;08:45;14,07
25.03.2024;07:45;13,00
25.03.2024;06:45;12,92
25.03.2024;05:45;12,93
25.03.2024;04:45;12,94
25.03.2024;03:45;12,97
25.03.2024;02:45;12,98
25.03.2024;01:45;13,00
25.03.2024;00:45;13,02
24.03.2024;23:45;13,06
24.03.2024;22:45;13,08
24.03.2024;21:45;13,13
24.03.2024;20:45;13,17
24.03.2024;19:45;13,20
24.03.2024;18:45;13,54
24.03.2024;17:45;14,04
24.03.2024;16:45;14,01
24.03.2024;15:45;13,98
24.03.2024;14:45;13,96
24.03.2024;13:45;13,95
24.03.2024;12:45;13,89
24.03.2024;11:45;14,00
24.03.2024;10:45;14,03
24.03.2024;09:45;14,03
24.03.2024;08:45;13,19
24.03.2024;07:45;12,97
24.03.2024;06:45;12,93
24.03.2024;05:45;12,93
24.03.2024;04:45;12,95
24.03.2024;03:45;12,96
24.03.2024;02:45;12,97
24.03.2024;01:45;13,00
24.03.2024;00:45;13,01
23.03.2024;23:45;13,03
23.03.2024;22:45;13,08
23.03.2024;21:45;13,09
23.03.2024;20:45;13,14
23.03.2024;19:45;13,18
23.03.2024;18:45;13,83
23.03.2024;17:45;13,92
23.03.2024;16:45;13,89
23.03.2024;15:45;13,85
23.03.2024;14:45;13,84
23.03.2024;13:45;13,85
23.03.2024;12:45;13,79
23.03.2024;11:45;13,89
23.03.2024;10:45;13,93
23.03.2024;09:45;13,92
23.03.2024;08:45;13,94
23.03.2024;07:45;13,01
23.03.2024;06:45;12,93
23.03.2024;05:45;12,95
23.03.2024;04:45;12,96
23.03.2024;03:45;12,97
23.03.2024;02:45;12,98
23.03.2024;01:45;13,00
23.03.2024;00:45;13,02
22.03.2024;23:45;13,05
22.03.2024;22:45;13,07
22.03.2024;21:45;13,11
22.03.2024;20:45;13,14
22.03.2024;19:45;13,20
22.03.2024;18:45;13,95
22.03.2024;17:45;13,94
22.03.2024;16:45;13,92
22.03.2024;15:45;13,93
22.03.2024;14:45;13,93
22.03.2024;13:45;13,92
22.03.2024;12:45;13,86
22.03.2024;11:45;13,95
22.03.2024;10:45;13,95
22.03.2024;09:45;13,95
22.03.2024;08:45;13,80
22.03.2024;07:45;12,98
22.03.2024;06:45;12,93
22.03.2024;05:45;12,92
22.03.2024;04:45;12,92
22.03.2024;03:45;12,96
22.03.2024;02:45;12,96
22.03.2024;01:45;12,99
22.03.2024;00:45;13,01
21.03.2024;23:45;13,02
21.03.2024;22:45;13,05
21.03.2024;21:45;13,08
21.03.2024;20:45;13,11
21.03.2024;19:45;13,15
21.03.2024;18:45;13,76
21.03.2024;17:45;13,69
21.03.2024;16:45;13,62
21.03.2024;15:45;13,57
21.03.2024;14:45;13,63
21.03.2024;13:45;13,76
21.03.2024;12:45;13,76
21.03.2024;11:45;13,87
21.03.2024;10:45;13,91
21.03.2024;09:45;13,93
21.03.2024;08:45;13,53
21.03.2024;07:45;12,96
21.03.2024;06:45;12,95
21.03.2024;05:45;12,95
21.03.2024;04:45;12,95
21.03.2024;03:45;12,96
21.03.2024;02:45;12,98
21.03.2024;01:45;13,00
21.03.2024;00:45;13,02
20.03.2024;23:45;13,04
20.03.2024;22:45;13,07
20.03.2024;21:45;13,09
20.03.2024;20:45;13,14
20.03.2024;19:45;13,18
20.03.2024;18:45;13,57
20.03.2024;17:45;13,92
20.03.2024;16:45;13,91
20.03.2024;15:45;13,90
20.03.2024;14:45;13,91
20.03.2024;13:45;13,90
20.03.2024;12:45;13,84
20.03.2024;11:45;13,96
20.03.2024;10:45;13,98
20.03.2024;09:45;13,98
20.03.2024;08:45;13,95
20.03.2024;07:45;12,97
20.03.2024;06:45;12,94
20.03.2024;05:45;12,95
20.03.2024;04:45;12,95
20.03.2024;03:45;12,97
20.03.2024;02:45;12,97
20.03.2024;01:45;12,99
20.03.2024;00:45;13,02
19.03.2024;23:45;13,04
19.03.2024;22:45;13,06
19.03.2024;21:45;13,10
19.03.2024;20:45;13,12
19.03.2024;19:45;13,18
19.03.2024;18:45;13,78
19.03.2024;17:45;13,88
19.03.2024;16:45;13,81
19.03.2024;15:45;13,75
19.03.2024;14:45;13,77
19.03.2024;13:45;13,83
19.03.2024;12:45;13,87
19.03.2024;11:45;14,04
19.03.2024;10:45;14,09
19.03.2024;09:45;14,10
19.03.2024;08:45;14,00
19.03.2024;07:45;12,99
19.03.2024;06:45;12,91
19.03.2024;05:45;12,90
19.03.2024;04:45;12,93
19.03.2024;03:45;12,95
19.03.2024;02:45;12,96
19.03.2024;01:45;12,99
19.03.2024;00:45;13,00
18.03.2024;23:45;13,04
18.03.2024;22:45;13,07
18.03.2024;21:45;13,09
18.03.2024;20:45;13,13
18.03.2024;19:45;13,17
18.03.2024;18:45;13,77
18.03.2024;17:45;13,75
18.03.2024;16:45;13,67
18.03.2024;15:45;13,60
18.03.2024;14:45;13,64
18.03.2024;13:45;13,69
18.03.2024;12:45;13,74
18.03.2024;11:45;14,01
18.03.2024;10:45;14,12
18.03.2024;09:45;14,16
18.03.2024;08:45;14,01
18.03.2024;07:45;12,96
18.03.2024;06:45;12,88
18.03.2024;05:45;12,90
18.03.2024;04:45;12,92
18.03.2024;03:45;12,94
18.03.2024;02:45;12,97
18.03.2024;01:45;12,99
18.03.2024;00:45;13,02
17.03.2024;23:45;13,06
17.03.2024;22:45;13,09
17.03.2024;21:45;13,12
17.03.2024;20:45;13,16
17.03.2024;19:45;13,20
17.03.2024;18:45;13,88
17.03.2024;17:45;13,90
17.03.2024;16:45;13,83
17.03.2024;15:45;13,75
17.03.2024;14:45;13,75
17.03.2024;13:45;13,77
17.03.2024;12:45;13,80
17.03.2024;11:45;14,06
17.03.2024;10:45;14,13
17.03.2024;09:45;14,13
17.03.2024;08:45;13,98
17.03.2024;07:45;12,97
17.03.2024;06:45;12,93
17.03.2024;05:45;12,94
17.03.2024;04:45;12,95
17.03.2024;03:45;12,96
17.03.2024;02:45;12,97
17.03.2024;01:45;13,00
17.03.2024;00:45;13,02
16.03.2024;23:45;13,05
16.03.2024;22:45;13,07
16.03.2024;21:45;13,09
16.03.2024;20:45;13,13
16.03.2024;19:45;13,18
16.03.2024;18:45;13,27
16.03.2024;17:45;13,94
16.03.2024;16:45;13,89
16.03.2024;15:45;13,85
16.03.2024;14:45;13,83
16.03.2024;13:45;13,83
16.03.2024;12:45;13,77
16.03.2024;11:45;13,92
16.03.2024;10:45;13,93
16.03.2024;09:45;13,95
16.03.2024;08:45;13,84
16.03.2024;07:45;13,00
16.03.2024;06:45;12,95
16.03.2024;05:45;12,96
16.03.2024;04:45;12,97
16.03.2024;03:45;12,98
16.03.2024;02:45;12,99
16.03.2024;01:45;13,01
16.03.2024;00:45;13,01
15.03.2024;23:45;13,03
15.03.2024;22:45;13,06
15.03.2024;21:45;13,08
15.03.2024;20:45;13,10
15.03.2024;19:45;13,14
15.03.2024;18:45;13,23
15.03.2024;17:45;13,71
15.03.2024;16:45;13,63
15.03.2024;15:45;13,58
15.03.2024;14:45;13,56
15.03.2024;13:45;13,57
15.03.2024;12:45;13,59
15.03.2024;11:45;13,81
15.03.2024;10:45;13,89
15.03.2024;09:45;13,91
15.03.2024;08:45;13,37
15.03.2024;07:45;13,00
15.03.2024;06:45;12,97
15.03.2024;05:45;12,96
15.03.2024;04:45;12,98
15.03.2024;03:45;12,99
15.03.2024;02:45;13,00
15.03.2024;01:45;13,02
15.03.2024;00:45;13,04
14.03.2024;23:45;13,06
14.03.2024;22:45;13,09
14.03.2024;21:45;13,12
14.03.2024;20:45;13,16
14.03.2024;19:45;13,20
14.03.2024;18:45;13,38
14.03.2024;17:45;13,88
14.03.2024;16:45;13,89
14.03.2024;15:45;13,89
14.03.2024;14:45;13,89
14.03.2024;13:45;13,90
14.03.2024;12:45;13,26
14.03.2024;11:45;13,92
14.03.2024;10:45;13,91
14.03.2024;09:45;13,68
14.03.2024;08:45;13,03
14.03.2024;07:45;12,96
14.03.2024;06:45;12,95
14.03.2024;05:45;12,96
14.03.2024;04:45;12,97
14.03.2024;03:45;12,99
14.03.2024;02:45;12,99
14.03.2024;01:45;13,02
14.03.2024;00:45;13,03
13.03.2024;23:45;13,05
13.03.2024;22:45;13,07
13.03.2024;21:45;13,11
13.03.2024;20:45;13,13
13.03.2024;19:45;13,18
13.03.2024;18:45;13,23
13.03.2024;17:45;13,92
13.03.2024;16:45;13,89
13.03.2024;15:45;13,87
13.03.2024;14:45;13,83
13.03.2024;13:45;13,77
13.03.2024;12:45;13,69
13.03.2024;11:45;13,94
13.03.2024;10:45;14,02
13.03.2024;09:45;14,05
13.03.2024;08:45;14,07
13.03.2024;07:45;12,97
13.03.2024;06:45;12,93
13.03.2024;05:45;12,94
13.03.2024;04:45;12,96
13.03.2024;03:45;12,97
13.03.2024;02:45;12,98
13.03.2024;01:45;13,00
13.03.2024;00:45;13,03
12.03.2024;23:45;13,06
12.03.2024;22:45;13,08
12.03.2024;21:45;13,12
12.03.2024;20:45;13,14
12.03.2024;19:45;13,20
12.03.2024;18:45;13,33
12.03.2024;17:45;13,77
12.03.2024;16:45;13,73
12.03.2024;15:45;13,68
12.03.2024;14:45;13,65
12.03.2024;13:45;13,70
12.03.2024;12:45;13,71
12.03.2024;11:45;14,01
12.03.2024;10:45;14,18
12.03.2024;09:45;14,30
12.03.2024;08:45;13,13
12.03.2024;07:45;12,93
12.03.2024;06:45;12,90
12.03.2024;05:45;12,92
12.03.2024;04:45;12,94
12.03.2024;03:45;12,96
12.03.2024;02:45;12,98
12.03.2024;01:45;13,01
12.03.2024;00:45;13,04
11.03.2024;23:45;13,05
11.03.2024;22:45;13,10
11.03.2024;21:45;13,13
11.03.2024;20:45;13,17
11.03.2024;19:45;13,21
11.03.2024;18:45;13,38
11.03.2024;17:45;13,81
11.03.2024;16:45;13,72
11.03.2024;15:45;13,66
11.03.2024;14:45;13,62
11.03.2024;13:45;13,72
11.03.2024;12:45;13,86
11.03.2024;11:45;14,09
11.03.2024;10:45;14,20
11.03.2024;09:45;14,31
11.03.2024;08:45;14,15
11.03.2024;07:45;12,95
11.03.2024;06:45;12,91
11.03.2024;05:45;12,92
11.03.2024;04:45;12,94
11.03.2024;03:45;12,97
11.03.2024;02:45;12,99
11.03.2024;01:45;13,02
11.03.2024;00:45;13,04
10.03.2024;23:45;13,07
10.03.2024;22:45;13,11
10.03.2024;21:45;13,14
10.03.2024;20:45;13,18
10.03.2024;19:45;13,20
10.03.2024;18:45;13,34
10.03.2024;17:45;13,84
10.03.2024;16:45;13,76
10.03.2024;15:45;13,71
10.03.2024;14:45;13,65
10.03.2024;13:45;13,71
10.03.2024;12:45;13,74
10.03.2024;11:45;14,02
10.03.2024;10:45;14,12
10.03.2024;09:45;14,20
10.03.2024;08:45;13,51
10.03.2024;07:45;12,94
10.03.2024;06:45;12,92
10.03.2024;05:45;12,93
10.03.2024;04:45;12,95
10.03.2024;03:45;12,97
10.03.2024;02:45;12,99
10.03.2024;01:45;13,03
10.03.2024;00:45;13,06
09.03.2024;23:45;13,09
09.03.2024;22:45;13,11
09.03.2024;21:45;13,15
09.03.2024;20:45;13,20
09.03.2024;19:45;13,25
09.03.2024;18:45;13,37
09.03.2024;17:45;13,96
09.03.2024;16:45;13,93
09.03.2024;15:45;13,93
09.03.2024;14:45;13,94
09.03.2024;13:45;13,95
09.03.2024;12:45;13,91
09.03.2024;11:45;14,01
09.03.2024;10:45;14,02
09.03.2024;09:45;13,41
09.03.2024;08:45;12,97
09.03.2024;07:45;12,93
09.03.2024;06:45;12,95
09.03.2024;05:45;12,96
09.03.2024;04:45;12,97
09.03.2024;03:45;12,99
09.03.2024;02:45;13,00
09.03.2024;01:45;13,02
09.03.2024;00:45;13,04
08.03.2024;23:45;13,07
08.03.2024;22:45;13,09
08.03.2024;21:45;13,13
08.03.2024;20:45;13,17
08.03.2024;19:45;13,22
08.03.2024;18:45;13,27
08.03.2024;17:45;13,90
08.03.2024;16:45;13,94
08.03.2024;15:45;13,93
08.03.2024;14:45;13,92
08.03.2024;13:45;13,93
